Location: Unspecified
(0.0000°N, 0.0000°E)
Time: 07:44:44
(UTC+00:00)

Courier 1B - Pass Details

Date: 30 September 2023
Orbit: 962 x 1208 km, 28.3° (Epoch: 06 December)

Event Time Altitude Azimuth Distance (km) Brightness Sun altitude
Rises 16:47:05 0° 324° (NW) 4,097 11.2 15.7°
Reaches altitude 10° 16:51:04 10° 342° (NNW) 3,122 10.4 14.7°
Maximum altitude 16:56:05 18° 23° (NNE) 2,527 9.5 13.5°
Drops below altitude 10° 17:01:00 10° 64° (ENE) 3,052 9.6 12.2°
Sets 17:04:49 0° 82° (E) 3,971 10.0 11.3°
